Temp
-14 -13 -13 -13 -12 -11 -11 -12 -11 -11 -12 -12 -11 -11 -11 -11 -11 -12 -12 -12 -12 -11 -11 -12 -11 -11 -11 -11 -11 -11 -11 -11 -11 -11 -12 -12 -12 -11 -11 -11 -11 -11 -11
-14 -14 -14 -14 -13 -12 -12 -12 -12 -12 -13 -12 -11 -11 -11 -11 -11 -12 -12 -12 -12 -12 -12 -12 -12 -11 -11 -11 -11 -12 -12 -12 -12 -12 -12 -12 -12 -12 -12 -12 -11 -11 -11
-14 -14 -14 -14 -14 -13 -13 -13 -13 -12 -12 -12 -11 -11 -10 -11 -11 -11 -11 -11 -11 -11 -11 -11 -12 -11 -12 -12 -11 -12 -13 -12 -12 -12 -12 -12 -12 -12 -12 -12 -12 -12 -12
-14 -14 -14 -14 -13 -14 -14 -13 -14 -14 -13 -12 -12 -12 -12 -11 -11 -11 -11 -11 -11 -11 -11 -11 -11 -11 -12 -12 -12 -12 -12 -13 -13 -13 -12 -12 -12 -12 -12 -12 -12 -12 -12
-15 -15 -14 -14 -14 -13 -13 -14 -14 -14 -14 -14 -13 -13 -13 -13 -13 -12 -11 -11 -11 -11 -11 -11 -12 -12 -12 -13 -12 -12 -12 -12 -13 -13 -13 -13 -13 -13 -12 -12 -12 -12 -12
-15 -15 -15 -14 -14 -14 -14 -13 -13 -13 -13 -14 -14 -13 -14 -14 -13 -13 -13 -12 -11 -12 -12 -12 -12 -12 -12 -13 -12 -12 -13 -13 -14 -14 -14 -13 -13 -13 -12 -12 -12 -12 -12
-15 -15 -14 -14 -14 -14 -14 -13 -14 -14 -13 -13 -13 -13 -14 -13 -13 -12 -13 -12 -13 -12 -11 -12 -12 -12 -12 -13 -12 -12 -12 -13 -13 -14 -14 -14 -14 -13 -13 -13 -13 -13 -13
-15 -15 -15 -15 -15 -14 -14 -13 -14 -14 -13 -13 -13 -13 -13 -13 -13 -13 -12 -13 -13 -13 -12 -12 -12 -12 -13 -13 -13 -13 -13 -14 -14 -14 -14 -14 -14 -14 -14 -14 -13 -13 -13
-15 -15 -15 -15 -15 -14 -14 -14 -14 -14 -13 -13 -13 -13 -13 -13 -13 -13 -13 -13 -13 -13 -13 -13 -13 -13 -14 -13 -13 -13 -14 -14 -15 -15 -15 -15 -15 -14 -14 -14 -14 -14 -14
-15 -15 -15 -15 -15 -15 -15 -14 -14 -14 -14 -14 -13 -13 -13 -13 -13 -13 -13 -13 -13 -13 -13 -14 -13 -14 -14 -14 -14 -14 -14 -14 -14 -14 -14 -14 -14 -14 -14 -14 -14 -14 -14
-15 -15 -15 -15 -14 -15 -15 -15 -14 -14 -14 -14 -14 -14 -14 -14 -14 -14 -14 -14 -14 -14 -13 -14 -14 -14 -14 -14 -15 -14 -15 -15 -14 -14 -14 -14 -14 -14 -14 -14 -14 -14 -14
-14 -15 -15 -15 -15 -15 -15 -15 -15 -14 -14 -14 -14 -14 -14 -14 -14 -14 -14 -14 -15 -15 -15 -15 -15 -15 -15 -15 -15 -15 -15 -15 -15 -15 -14 -14 -14 -14 -14 -14 -14 -14 -14
-16 -15 -15 -15 -15 -15 -15 -15 -14 -14 -14 -14 -14 -14 -15 -15 -15 -14 -14 -14 -16 -16 -16 -16 -16 -16 -16 -15 -16 -15 -16 -16 -16 -15 -15 -14 -14 -15 -14 -14 -15 -15 -15
-16 -16 -16 -16 -16 -16 -15 -15 -15 -15 -15 -15 -15 -15 -15 -15 -15 -15 -16 -16 -16 -16 -16 -17 -16 -16 -16 -16 -16 -16 -16 -16 -16 -15 -15 -15 -15 -15 -15 -15 -15 -16 -16
-17 -17 -17 -17 -16 -16 -16 -16 -16 -16 -16 -16 -16 -16 -16 -16 -16 -16 -16 -16 -17 -17 -17 -17 -17 -17 -17 -16 -16 -16 -16 -16 -16 -16 -17 -17 -17 -17 -17 -17 -17 -17 -17
-18 -18 -17 -17 -18 -18 -18 -17 -17 -17 -17 -16 -16 -16 -16 -16 -16 -16 -16 -16 -17 -17 -17 -18 -18 -17 -17 -17 -17 -17 -17 -17 -17 -17 -18 -17 -18 -18 -18 -18 -18 -18 -18
-19 -19 -19 -18 -18 -18 -18 -18 -18 -17 -17 -17 -17 -17 -17 -17 -17 -16 -16 -16 -17 -17 -17 -17 -17 -17 -17 -17 -17 -17 -17 -18 -18 -18 -18 -18 -18 -18 -18 -18 -18 -18 -18
-19 -19 -19 -19 -19 -19 -19 -18 -18 -18 -17 -17 -17 -17 -17 -17 -17 -17 -17 -17 -17 -17 -17 -17 -17 -17 -17 -17 -18 -18 -18 -18 -18 -18 -18 -18 -18 -18 -18 -18 -19 -19 -19
-19 -19 -19 -20 -20 -20 -20 -20 -19 -19 -18 -18 -18 -18 -18 -18 -18 -17 -17 -17 -17 -17 -17 -18 -18 -18 -18 -18 -18 -18 -18 -18 -18 -18 -19 -19 -19 -19 -19 -20 -19 -20 -20
-20 -20 -20 -20 -19 -19 -19 -19 -19 -19 -19 -19 -19 -18 -18 -18 -18 -18 -18 -18 -18 -18 -18 -18 -18 -18 -18 -18 -18 -18 -18 -19 -19 -19 -19 -19 -19 -19 -19 -19 -19 -20 -20
-21 -21 -21 -21 -21 -20 -20 -20 -19 -19 -20 -19 -19 -18 -18 -18 -18 -18 -18 -18 -19 -19 -19 -19 -19 -19 -19 -19 -19 -19 -19 -19 -19 -19 -19 -19 -19 -19 -19 -19 -20 -20 -19
-23 -22 -22 -22 -22 -21 -21 -20 -20 -20 -20 -19 -19 -19 -19 -19 -19 -19 -19 -19 -19 -19 -19 -19 -19 -19 -19 -19 -19 -19 -19 -19 -19 -19 -19 -19 -19 -19 -19 -19 -19 -20 -19
-23 -23 -23 -22 -22 -22 -22 -21 -21 -21 -20 -20 -19 -19 -19 -19 -20 -19 -20 -20 -20 -20 -20 -20 -20 -20 -20 -20 -20 -20 -19 -20 -20 -20 -20 -20 -20 -20 -20 -20 -20 -20 -20
-23 -23 -24 -23 -23 -23 -22 -22 -21 -21 -21 -21 -20 -20 -20 -20 -20 -20 -20 -20 -20 -20 -20 -20 -20 -20 -21 -20 -20 -20 -20 -20 -20 -20 -20 -20 -20 -20 -20 -20 -20 -20 -20
-26 -25 -24 -24 -24 -23 -23 -23 -22 -22 -21 -21 -21 -21 -21 -21 -21 -21 -21 -21 -20 -21 -20 -21 -21 -21 -21 -20 -20 -20 -21 -20 -20 -21 -21 -20 -20 -20 -20 -20 -20 -20 -20
-26 -26 -26 -25 -24 -24 -23 -23 -23 -22 -22 -22 -21 -21 -21 -21 -21 -21 -21 -20 -21 -21 -21 -21 -21 -21 -21 -21 -21 -21 -21 -21 -21 -21 -21 -21 -21 -21 -21 -21 -21 -21 -21
Height
5738 5742 5748 5755 5762 5768 5772 5774 5779 5788 5790 5792 5799 5805 5810 5811 5814 5817 5819 5820 5821 5824 5827 5827 5827 5827 5826 5826 5826 5826 5826 5827 5826 5827 5827 5828 5827 5826 5826 5825 5823 5822 5820
5738 5743 5747 5752 5757 5760 5764 5770 5776 5780 5783 5791 5798 5803 5807 5805 5807 5810 5814 5814 5814 5817 5821 5820 5818 5819 5819 5818 5816 5817 5817 5816 5816 5819 5821 5822 5820 5818 5818 5817 5816 5813 5811
5734 5740 5745 5748 5751 5757 5760 5767 5770 5773 5779 5784 5786 5791 5793 5793 5796 5801 5805 5806 5806 5809 5811 5812 5810 5808 5808 5807 5805 5806 5808 5808 5807 5809 5811 5813 5813 5812 5810 5809 5808 5806 5803
5728 5735 5742 5746 5750 5752 5755 5757 5763 5766 5773 5777 5780 5783 5784 5787 5789 5791 5792 5795 5798 5799 5801 5800 5799 5798 5799 5799 5799 5801 5800 5799 5800 5801 5802 5801 5802 5803 5803 5800 5800 5798 5796
5724 5729 5734 5739 5744 5749 5753 5757 5759 5760 5765 5770 5772 5773 5777 5779 5781 5782 5784 5785 5787 5790 5791 5791 5789 5788 5788 5791 5790 5790 5792 5792 5792 5793 5793 5792 5791 5790 5790 5792 5789 5787 5786
5718 5724 5728 5732 5737 5741 5746 5749 5753 5757 5759 5763 5765 5769 5770 5772 5774 5775 5776 5778 5780 5781 5781 5781 5781 5780 5780 5783 5784 5782 5781 5783 5784 5784 5784 5784 5783 5782 5780 5780 5778 5776 5774
5710 5718 5723 5727 5731 5734 5738 5742 5746 5750 5753 5756 5758 5760 5762 5764 5767 5769 5770 5772 5772 5774 5774 5772 5771 5771 5772 5773 5773 5773 5773 5774 5775 5775 5775 5775 5773 5773 5771 5770 5768 5765 5763
5704 5708 5713 5720 5724 5727 5728 5731 5736 5741 5745 5748 5750 5752 5754 5756 5759 5761 5763 5763 5764 5767 5761 5764 5765 5761 5763 5763 5763 5764 5765 5764 5762 5763 5764 5763 5761 5761 5760 5759 5756 5754 5753
5699 5702 5704 5709 5716 5720 5722 5724 5727 5729 5733 5736 5740 5742 5744 5747 5750 5751 5753 5754 5755 5756 5753 5754 5753 5753 5752 5753 5752 5752 5752 5751 5751 5751 5751 5750 5750 5748 5748 5746 5744 5743 5742
5696 5699 5702 5705 5707 5711 5715 5718 5721 5723 5726 5728 5730 5733 5735 5737 5739 5740 5741 5743 5743 5743 5742 5742 5742 5741 5740 5740 5740 5740 5740 5739 5740 5739 5739 5739 5738 5737 5736 5734 5731 5730 5729
5694 5696 5697 5699 5702 5703 5704 5708 5712 5715 5717 5720 5722 5724 5727 5728 5729 5729 5730 5729 5730 5729 5730 5730 5729 5728 5728 5727 5727 5728 5729 5727 5727 5728 5728 5727 5726 5724 5723 5721 5719 5718 5716
5691 5692 5692 5693 5695 5697 5698 5699 5701 5702 5705 5707 5709 5711 5712 5713 5714 5714 5715 5715 5715 5716 5716 5717 5716 5715 5714 5714 5715 5716 5715 5714 5714 5715 5715 5713 5712 5710 5709 5708 5707 5704 5703
5684 5686 5687 5688 5689 5689 5690 5691 5692 5694 5695 5697 5698 5700 5701 5701 5701 5701 5700 5701 5701 5701 5701 5702 5702 5702 5702 5702 5703 5702 5702 5701 5701 5702 5701 5700 5698 5696 5695 5693 5692 5689 5689
5677 5678 5679 5680 5680 5681 5682 5683 5684 5686 5687 5688 5689 5691 5691 5691 5691 5690 5690 5689 5689 5689 5689 5690 5690 5689 5691 5692 5690 5689 5689 5690 5690 5688 5686 5686 5684 5682 5680 5680 5678 5676 5674
5668 5668 5669 5669 5669 5670 5671 5672 5674 5675 5677 5680 5681 5682 5683 5684 5683 5682 5683 5681 5681 5680 5678 5679 5680 5680 5680 5681 5680 5678 5678 5676 5676 5674 5672 5672 5671 5668 5667 5666 5665 5663 5663
5658 5656 5656 5656 5657 5658 5659 5662 5662 5664 5666 5668 5669 5671 5673 5673 5673 5674 5674 5673 5672 5671 5670 5670 5670 5669 5669 5670 5669 5667 5666 5665 5664 5663 5662 5660 5658 5657 5656 5655 5653 5652 5651
5645 5645 5646 5646 5647 5646 5647 5648 5649 5652 5655 5656 5657 5659 5660 5660 5661 5663 5664 5664 5663 5663 5662 5662 5662 5661 5660 5660 5659 5657 5657 5656 5655 5653 5651 5649 5648 5646 5645 5644 5643 5641 5640
5630 5630 5629 5630 5631 5632 5633 5634 5637 5640 5641 5643 5645 5646 5647 5648 5650 5652 5653 5654 5654 5654 5653 5653 5653 5653 5653 5652 5651 5650 5648 5647 5645 5643 5641 5639 5637 5636 5635 5633 5632 5632 5631
5615 5615 5615 5616 5617 5617 5618 5621 5623 5624 5627 5628 5629 5631 5633 5636 5637 5639 5640 5641 5642 5643 5644 5643 5642 5642 5642 5642 5641 5640 5638 5637 5635 5633 5631 5629 5628 5626 5625 5624 5624 5623 5622
5598 5596 5595 5597 5598 5599 5603 5606 5607 5609 5612 5612 5614 5618 5621 5623 5625 5626 5628 5629 5630 5631 5631 5631 5632 5631 5631 5631 5631 5629 5628 5627 5626 5625 5623 5621 5620 5619 5617 5616 5615 5614 5614
5582 5579 5578 5579 5579 5581 5584 5587 5590 5594 5594 5598 5601 5605 5608 5610 5612 5614 5616 5617 5618 5619 5620 5620 5620 5621 5621 5621 5620 5619 5619 5618 5617 5616 5615 5613 5612 5611 5610 5608 5607 5607 5606
5566 5563 5562 5563 5562 5564 5567 5570 5575 5575 5580 5584 5588 5591 5594 5596 5598 5601 5602 5604 5605 5606 5607 5608 5608 5609 5609 5609 5610 5610 5609 5609 5608 5608 5607 5605 5604 5603 5601 5600 5599 5599 5599
5547 5544 5543 5546 5547 5547 5550 5555 5558 5562 5565 5569 5574 5578 5581 5583 5586 5587 5589 5591 5592 5594 5595 5596 5596 5597 5597 5598 5599 5599 5599 5599 5599 5599 5598 5597 5596 5595 5594 5593 5592 5592 5592
5519 5515 5521 5527 5531 5533 5536 5539 5544 5548 5552 5556 5561 5565 5568 5571 5574 5577 5578 5580 5581 5582 5583 5584 5584 5586 5586 5587 5588 5589 5588 5588 5589 5590 5589 5589 5588 5588 5587 5586 5585 5585 5584
5491 5489 5491 5504 5514 5519 5523 5526 5530 5535 5539 5544 5549 5553 5556 5559 5563 5566 5568 5569 5570 5572 5573 5574 5575 5575 5575 5576 5577 5577 5578 5579 5580 5580 5580 5580 5579 5579 5578 5578 5578 5577 5577
5481 5477 5475 5486 5499 5507 5512 5514 5519 5523 5528 5533 5537 5541 5544 5547 5552 5555 5558 5558 5559 5561 5563 5564 5564 5565 5565 5565 5566 5567 5569 5569 5570 5571 5571 5571 5570 5570 5570 5570 5570 5570 5570
Wind_Speed
39 37 33 29 30 33 30 27 31 28 19 9 33 32 33 33 31 33 34 37 31 30 30 29 30 33 34 34 36 37 37 38 39 39 37 35 35 35 36 36 36 37 37
40 38 36 36 34 31 32 32 30 29 19 19 26 33 30 18 28 34 35 25 24 32 36 33 33 36 40 40 41 42 41 41 41 40 37 34 36 37 38 38 37 40 40
42 40 36 35 34 36 31 31 27 25 24 23 24 23 19 24 18 29 32 32 30 31 36 37 37 39 40 42 48 50 49 44 42 42 39 37 36 38 38 39 41 41 42
48 46 43 39 36 36 36 31 36 28 31 26 24 23 28 28 28 25 26 30 32 34 37 39 42 41 37 33 38 37 46 51 50 43 43 40 39 40 38 39 43 47 47
47 47 46 45 43 40 39 37 37 31 31 28 30 29 32 30 31 30 31 33 35 34 37 41 36 40 42 37 32 33 39 42 39 35 38 41 42 39 37 41 43 43 47
45 47 45 45 44 42 39 38 39 35 35 34 34 31 32 33 34 33 31 34 36 37 34 37 41 37 35 37 41 37 35 35 34 34 36 38 39 44 47 48 49 52 54
49 47 45 44 45 45 46 45 43 40 40 38 39 38 38 38 36 30 33 34 39 31 43 45 39 43 43 41 46 50 45 36 38 37 41 44 45 49 49 50 53 52 52
39 47 48 46 45 46 49 51 48 48 46 46 44 43 44 40 38 36 34 33 38 41 45 42 45 43 46 44 44 42 41 44 42 42 44 47 48 49 50 51 51 49 48
26 30 36 37 39 36 35 36 39 44 45 45 46 43 40 40 40 39 38 39 42 44 50 51 55 47 35 43 45 46 49 45 44 45 44 46 48 46 47 49 47 47 45
33 33 33 37 41 40 39 38 39 39 41 41 42 41 42 43 44 45 46 46 45 50 54 56 57 60 62 58 53 48 45 46 43 43 47 46 47 46 48 48 48 49 50
40 36 36 37 38 36 35 36 38 39 41 42 42 44 46 47 47 48 50 53 55 58 61 60 59 58 58 48 48 50 47 46 49 51 51 53 54 54 55 52 52 52 54
40 39 37 34 36 37 37 39 42 43 44 45 45 48 49 49 52 54 56 57 58 57 58 62 62 62 61 63 59 54 53 53 54 55 55 54 54 55 54 53 55 51 50
36 39 39 39 40 41 44 45 46 47 48 49 48 50 53 54 55 57 57 58 57 58 57 56 55 55 51 54 56 56 53 47 48 50 51 50 49 47 50 50 47 47 48
39 39 43 43 43 44 45 48 49 50 49 50 51 52 50 47 43 39 41 45 49 50 55 54 52 55 53 52 51 51 48 45 45 42 44 48 48 46 47 48 49 49 49
42 42 43 43 45 46 48 50 50 48 47 46 44 42 39 37 33 33 34 33 36 38 47 43 45 46 43 42 39 37 36 35 37 38 39 41 44 44 45 45 46 46 47
46 46 47 48 49 49 49 49 49 48 46 43 42 40 39 37 36 36 35 33 32 33 35 36 37 36 32 32 32 33 32 33 36 38 40 41 43 42 43 43 43 43 42
45 50 51 51 51 51 51 51 52 51 49 47 46 44 42 40 39 40 38 37 35 33 32 33 33 32 31 32 32 32 32 34 36 37 38 40 40 41 41 40 39 38 37
42 43 46 49 48 50 53 55 55 54 52 50 48 47 46 44 43 43 42 40 40 39 37 36 36 37 37 36 35 36 37 39 39 38 38 37 37 37 37 36 35 32 30
48 50 50 48 47 48 49 47 48 49 49 48 48 48 48 48 48 47 46 46 45 44 44 42 41 41 40 39 39 39 39 39 36 34 32 32 32 32 32 31 32 32 31
53 54 55 54 55 55 51 47 47 48 48 48 47 44 44 46 47 48 48 49 48 47 46 44 43 42 42 42 39 38 36 35 33 31 30 29 29 29 29 30 31 29 26
51 55 56 54 55 55 53 51 49 47 48 47 47 46 46 47 47 49 51 51 51 50 49 48 45 43 43 43 40 39 36 34 32 29 30 30 30 28 28 28 26 25 24
51 50 50 50 52 53 54 53 51 50 48 48 47 47 48 48 47 45 46 48 48 49 48 47 45 44 43 42 40 38 37 34 33 32 33 28 27 27 28 28 27 25 24
58 55 55 50 45 42 47 50 50 48 46 45 46 45 43 43 43 42 42 44 45 44 44 44 44 45 43 41 41 38 34 34 34 32 29 28 28 27 26 26 27 25 24
66 66 58 55 48 44 44 45 46 46 44 43 44 44 42 41 41 42 41 41 41 40 39 41 41 40 39 41 42 35 32 33 31 30 29 28 27 28 29 26 24 24 24
37 51 61 54 45 41 43 43 43 42 40 40 41 40 40 40 39 39 39 37 38 37 36 37 39 39 41 41 41 35 33 31 31 30 30 29 27 27 27 27 27 26 24
33 35 31 35 33 34 33 36 38 38 36 37 38 38 37 37 38 38 35 40 36 36 36 39 38 35 33 32 32 32 32 32 29 30 31 29 28 28 27 27 25 26 26
Wind_Direction
236 241 241 237 242 238 233 242 237 241 252 255 223 234 234 231 235 236 243 246 246 250 255 262 266 267 265 265 265 261 262 263 266 267 269 270 273 277 279 281 284 287 289
228 233 243 252 242 250 252 254 258 250 259 261 235 230 232 232 237 234 242 236 252 255 257 265 272 275 273 267 264 264 259 258 260 265 269 271 277 279 280 282 284 285 286
233 234 233 238 251 249 254 256 254 257 256 262 260 257 257 253 257 238 243 243 270 276 277 273 271 270 271 282 267 259 257 259 262 267 269 268 268 271 276 279 281 284 292
238 240 240 239 243 253 258 254 263 258 265 259 259 261 246 259 271 265 257 258 265 273 275 273 270 263 272 282 273 269 269 259 259 264 268 270 274 273 270 272 279 284 288
234 240 244 245 247 250 253 252 257 257 260 262 264 268 275 273 268 269 262 258 260 265 269 270 260 257 267 267 256 259 260 263 263 271 276 274 274 277 279 281 284 286 287
238 239 242 244 245 248 251 253 252 253 256 257 260 268 269 274 278 277 275 266 266 271 266 258 264 260 265 259 258 258 250 255 260 269 270 274 276 283 280 281 284 288 291
238 238 238 240 242 247 252 253 254 253 254 253 257 263 264 267 268 269 273 274 276 264 262 264 254 264 271 266 271 268 268 263 270 269 271 278 276 282 283 284 285 289 292
237 239 241 242 247 251 254 252 252 249 252 254 258 260 265 263 262 262 267 273 283 276 261 267 262 260 264 272 264 264 264 276 287 280 276 281 282 284 286 287 288 289 289
232 234 237 237 235 238 244 244 244 246 249 252 257 260 260 263 266 267 267 264 264 265 267 268 266 266 265 274 258 259 276 279 278 277 281 280 280 284 288 289 287 287 288
235 238 236 239 243 243 241 242 245 248 252 254 256 258 260 263 266 269 267 262 259 259 262 263 267 263 273 279 277 268 273 280 272 275 281 278 281 281 287 287 287 287 285
238 242 240 241 241 243 245 244 244 246 249 252 255 258 260 262 263 264 265 264 264 264 263 267 267 265 268 272 275 267 273 274 276 278 282 281 283 280 286 287 285 288 285
238 239 239 238 239 242 245 250 254 254 254 256 258 263 265 267 269 267 266 264 262 263 264 264 265 268 270 274 277 277 280 281 278 281 287 285 281 279 281 288 284 286 286
234 236 238 240 245 249 252 253 255 257 259 260 261 264 269 270 271 273 274 272 270 268 269 270 270 272 278 277 278 279 283 286 284 283 283 282 287 287 286 280 279 283 283
238 242 243 246 248 249 250 252 253 255 257 260 262 264 266 269 272 277 279 278 273 273 271 273 273 276 280 283 284 285 287 285 285 285 286 286 284 282 282 280 280 278 278
245 243 246 247 246 247 248 248 249 249 250 252 254 256 260 264 269 275 278 285 271 273 278 276 273 275 277 279 280 280 278 280 279 279 280 280 280 279 279 279 278 279 279
248 246 245 246 246 246 247 247 247 248 248 251 253 257 261 265 267 268 272 274 277 278 277 275 272 266 266 273 280 282 283 284 285 283 282 281 280 280 280 281 282 281 280
251 249 251 252 251 250 249 249 250 250 251 252 254 256 258 262 264 266 266 267 268 269 272 274 274 276 277 276 281 284 285 286 285 286 285 283 282 281 281 280 281 282 281
258 255 252 248 248 252 252 251 252 253 253 253 253 253 256 258 260 260 261 263 267 269 267 269 273 274 273 276 279 279 282 286 285 285 287 285 282 281 281 281 282 281 284
262 259 254 253 252 251 250 250 251 251 251 251 251 251 251 253 255 257 258 261 263 266 269 272 273 273 273 277 280 282 282 284 287 288 288 288 286 285 282 280 281 284 283
265 262 259 256 253 254 251 249 248 250 253 254 254 252 253 255 257 258 260 263 266 267 269 272 273 276 275 276 277 281 282 283 285 284 287 287 288 285 286 284 282 280 281
273 267 262 259 258 256 253 252 251 251 251 250 252 254 255 258 259 259 260 262 264 266 268 270 273 275 276 276 277 278 277 280 282 281 285 289 284 283 287 289 285 278 276
276 272 268 265 260 257 256 255 254 253 254 255 254 254 256 258 259 262 263 261 261 263 265 268 268 267 269 269 271 272 272 273 277 279 285 282 288 286 287 287 285 281 276
275 267 264 262 261 261 258 253 252 252 252 253 254 255 256 257 258 259 261 260 258 260 261 264 267 269 269 268 267 266 267 270 272 279 280 282 284 286 288 290 286 280 279
273 268 259 254 254 263 264 255 251 250 249 250 251 251 250 250 252 255 259 261 260 261 263 266 268 272 270 270 266 263 266 267 270 275 276 278 282 285 283 282 282 282 277
282 270 264 254 251 254 256 253 248 247 245 246 247 248 248 248 248 251 256 259 259 262 264 266 269 270 268 267 262 258 262 266 271 271 272 276 282 281 281 280 279 281 281
297 285 265 244 240 244 248 247 244 243 243 243 244 246 248 249 249 255 258 259 258 260 261 271 266 262 263 261 259 259 261 265 270 269 270 275 279 279 279 280 281 279 280